Location: ??????
(38.0677°N, 22.9870°E)
Time: 10:59:27
(UTC+00:00)

Cosmos 841 Rocket - Pass Details

Date: 23 May 2024
Orbit: 744 x 770 km, 74.0° (Epoch: 23 June)

Event Time Altitude Azimuth Distance (km) Brightness Sun altitude
Rises 00:28:27 0° 338° (NNW) 3,231 7.2 -24.5°
Reaches altitude 10° 00:30:50 10° 336° (NNW) 2,305 6.4 -24.3°
Maximum altitude 00:36:02 67° 255° (WSW) 829 3.4 -23.7°
Enters shadow 00:36:28 64° 224° (SW) 849 3.4 -23.7°
